THOR ABLESTAR DEB, 465

Orbit data source: Space-Track

THOR ABLESTAR DEB, 465 is space debris in LEO originally from a launch on Thu, 29 Jun 1961 UTC launched from the Air Force Eastern Test Range (AFETR). Debris objects in space refer to the collection of defunct objects orbiting the Earth. Examples of debris include non-operational satellites, rocket bodies, and fragments generated from explosions, collisions, or faulty payload assembly.

Loading next visibility...
Identifier
465, 1961-015FB
Orbit
LEO
Last TLE update
11 hours ago
Origin
Manufacturer
Unknown
Mission
Spacecraft
Bus & Motor
Unknown
Mass
Unknown
Launch date (UTC)
1961-06-29 (64 years ago)
Launch vehicle
Unknown
Launch site
Air Force Eastern Test Range (AFETR)
Object type
Payload
Rocket body
Debris
Shape & HBR
Unknown
Radar Cross Section
Small (<0.1 m²)

Expand to show TLE details & history

TLE from 11 hours ago
0 THOR ABLESTAR DEB
1 00465U 61015FB  25141.54774243  .00001304  00000-0  44707-3 0  9990
2 00465  66.3171 232.9997 0036448 219.6673 140.1759 14.39060769289710
Epoch: 2025-05-21T13:08Z
TLE epoch observation values (Epoch: 2025-05-21T13:08:44.945Z)
Latitude
-0.00013°
Longitude
156.38229°
Altitude
783.716 km
Speed
7.452 km/s
True Right ascension
15h 31m 59s
True Declination
0° 00' 00"
Sunlit
Object was in full shadow at epoch
Visualization orbit readout
Latitude
-64.0882°
Longitude
91.21551°
Altitude
772.827 km
Speed
7.474 km/s
Apparent Right ascension
19h 12m 17s
Apparent Declination
-76° 33' 10"
Sunlit
Object is in partial shadow
Visualization observer readout
Local Sidereal Time
09:26:25
Azimuth
168.322° S
Elevation
-50.601°
Doppler factor
1
Orbital elements
Apogee altitude
786.034 km
Perigee altitude
733.999 km
Semi-major axis
7,138.154 km
Eccentricity
0.00364
Inclination
66.3171°
RAAN
232.9997°
Arg. of periapsis
219.6673°
True anomaly
Unknown
Mean anomaly
140.1759°
Eccentric anomaly
Unknown
Mean motion
3.59885 °/min
Orbital period
100.03 mins
BSTAR
0.00044707
Loading maneuver chart data...
Loading SW <> Apogee altitude chart data...

THOR ABLESTAR DEB Visibility forecast

Observer location: undefined°, undefined°

Span
Click to sort rows by Start time (UTC) header in descending order
Start Az.
Max El. time (UTC)
Max El. Az.
Max El.
End time (UTC)
End Az.
9 mins2025-05-22 07:37:19.154Z202.613° SW2025-05-22 07:42:19.154Z63.46° ENE43.48°2025-05-22 07:46:19.154Z32.785° NE
5 mins2025-05-22 09:23:19.154Z290.214° WNW2025-05-22 09:25:19.154Z316.639° NNW17.001°2025-05-22 09:28:19.154Z353.594° N
8 mins2025-05-22 16:23:19.154Z342.598° N2025-05-22 16:27:19.154Z65.601° ENE39.623°2025-05-22 16:31:19.154Z132.619° SE
5 mins2025-05-22 18:07:19.154Z283.292° WNW2025-05-22 18:09:19.154Z256.392° W17.479°2025-05-22 18:12:19.154Z217.087° SW
|